Time,TemperatureF,DewpointF,PressureIn,WindDirection,WindDirectionDegrees,WindSpeedMPH,WindSpeedGustMPH,Humidity,HourlyPrecipIn,Conditions,Clouds,dailyrainin,SoftwareType,DateUTC
2013-03-02 00:02:00,30.4,26.7,30.57,East,90,0.0,4.0,86,0.00,,SKC,0.00,VWS V14.00,2013-03-02 07:02:00,
2013-03-02 00:07:00,30.4,26.7,30.57,East,90,0.0,0.0,86,0.00,,SKC,0.00,VWS V14.00,2013-03-02 07:07:00,
2013-03-02 00:12:00,30.3,26.6,30.57,East,90,0.0,0.0,86,0.00,,SKC,0.00,VWS V14.00,2013-03-02 07:12:00,
2013-03-02 00:18:00,30.2,26.5,30.57,East,90,0.0,0.0,86,0.00,,SKC,0.00,VWS V14.00,2013-03-02 07:18:00,
2013-03-02 00:23:00,30.1,26.4,30.57,East,90,0.0,0.0,86,0.00,,SKC,0.00,VWS V14.00,2013-03-02 07:23:00,
2013-03-02 00:28:00,29.9,26.2,30.57,East,90,0.0,1.0,86,0.00,,SKC,0.00,VWS V14.00,2013-03-02 07:28:00,
2013-03-02 00:33:00,29.7,26.3,30.57,East,90,0.0,0.0,87,0.00,,SKC,0.00,VWS V14.00,2013-03-02 07:33:00,
2013-03-02 00:39:00,29.5,26.1,30.57,East,90,0.0,0.0,87,0.00,,SKC,0.00,VWS V14.00,2013-03-02 07:39:00,
2013-03-02 00:44:00,29.4,26.0,30.57,East,90,0.0,0.0,87,0.00,,SKC,0.00,VWS V14.00,2013-03-02 07:44:00,
2013-03-02 00:49:00,29.2,25.5,30.57,East,90,0.0,0.0,86,0.00,,SKC,0.00,VWS V14.00,2013-03-02 07:49:00,
2013-03-02 00:54:00,28.9,25.5,30.57,East,90,0.0,0.0,87,0.00,,SKC,0.00,VWS V14.00,2013-03-02 07:54:00,
2013-03-02 01:00:00,28.6,25.0,30.57,East,90,0.0,0.0,86,0.00,,SKC,0.00,VWS V14.00,2013-03-02 08:00:00,
2013-03-02 01:05:00,28.2,24.8,30.57,East,90,0.0,1.0,87,0.00,,SKC,0.00,VWS V14.00,2013-03-02 08:05:00,
2013-03-02 01:10:00,27.9,24.8,30.58,East,90,1.0,2.0,88,0.00,,SKC,0.00,VWS V14.00,2013-03-02 08:10:00,
2013-03-02 01:15:00,27.5,24.4,30.57,East,90,0.0,2.0,88,0.00,,SKC,0.00,VWS V14.00,2013-03-02 08:15:00,
2013-03-02 01:21:00,27.1,24.0,30.58,East,90,0.0,2.0,88,0.00,,SKC,0.00,VWS V14.00,2013-03-02 08:21:00,
2013-03-02 01:26:00,26.8,23.7,30.57,East,90,1.0,2.0,88,0.00,,SKC,0.00,VWS V14.00,2013-03-02 08:26:00,
2013-03-02 01:31:00,26.5,23.7,30.58,East,90,1.0,4.0,89,0.00,,SKC,0.00,VWS V14.00,2013-03-02 08:31:00,
2013-03-02 01:36:00,26.3,23.5,30.57,East,90,0.0,2.0,89,0.00,,SKC,0.00,VWS V14.00,2013-03-02 08:36:00,
2013-03-02 01:42:00,26.1,23.3,30.57,East,90,0.0,2.0,89,0.00,,SKC,0.00,VWS V14.00,2013-03-02 08:42:00,
2013-03-02 01:47:00,25.9,23.1,30.58,East,90,0.0,2.0,89,0.00,,SKC,0.00,VWS V14.00,2013-03-02 08:47:00,
2013-03-02 01:52:00,25.4,22.4,30.57,East,90,0.0,2.0,88,0.00,,SKC,0.00,VWS V14.00,2013-03-02 08:52:00,
2013-03-02 01:57:00,25.0,22.2,30.57,East,90,1.0,2.0,89,0.00,,SKC,0.00,VWS V14.00,2013-03-02 08:57:00,
2013-03-02 02:03:00,24.8,22.3,30.57,East,90,0.0,0.0,90,0.00,,SKC,0.00,VWS V14.00,2013-03-02 09:03:00,
2013-03-02 02:08:00,24.6,22.1,30.58,East,90,1.0,2.0,90,0.00,,SKC,0.00,VWS V14.00,2013-03-02 09:08:00,
2013-03-02 02:13:00,24.4,21.9,30.58,East,90,0.0,2.0,90,0.00,,SKC,0.00,VWS V14.00,2013-03-02 09:13:00,
2013-03-02 02:18:00,24.3,22.1,30.58,East,90,0.0,2.0,91,0.00,,SKC,0.00,VWS V14.00,2013-03-02 09:18:00,
2013-03-02 02:23:00,24.3,22.1,30.58,East,90,0.0,2.0,91,0.00,,SKC,0.00,VWS V14.00,2013-03-02 09:23:00,
2013-03-02 02:29:00,24.0,21.5,30.58,East,90,0.0,2.0,90,0.00,,SKC,0.00,VWS V14.00,2013-03-02 09:29:00,
2013-03-02 02:34:00,23.8,21.3,30.58,East,90,1.0,2.0,90,0.00,,SKC,0.00,VWS V14.00,2013-03-02 09:34:00,
2013-03-02 02:39:00,23.2,20.7,30.58,East,90,0.0,2.0,90,0.00,,SKC,0.00,VWS V14.00,2013-03-02 09:39:00,
2013-03-02 02:44:00,23.0,20.8,30.58,East,90,0.0,2.0,91,0.00,,SKC,0.00,VWS V14.00,2013-03-02 09:44:00,
2013-03-02 02:49:00,22.9,20.7,30.58,East,90,0.0,2.0,91,0.00,,SKC,0.00,VWS V14.00,2013-03-02 09:49:00,
2013-03-02 02:55:00,22.7,20.2,30.58,East,90,0.0,2.0,90,0.00,,SKC,0.00,VWS V14.00,2013-03-02 09:55:00,
2013-03-02 03:00:00,22.4,20.2,30.58,East,90,0.0,2.0,91,0.00,,SKC,0.00,VWS V14.00,2013-03-02 10:00:00,
2013-03-02 03:05:00,22.3,20.3,30.58,East,90,0.0,0.0,92,0.00,,SKC,0.00,VWS V14.00,2013-03-02 10:05:00,
2013-03-02 03:11:00,22.1,19.9,30.58,East,90,0.0,0.0,91,0.00,,SKC,0.00,VWS V14.00,2013-03-02 10:11:00,
2013-03-02 03:16:00,22.0,19.8,30.58,East,90,0.0,0.0,91,0.00,,SKC,0.00,VWS V14.00,2013-03-02 10:16:00,
2013-03-02 03:21:00,22.0,20.0,30.58,East,90,0.0,0.0,92,0.00,,SKC,0.00,VWS V14.00,2013-03-02 10:21:00,
2013-03-02 03:27:00,22.0,20.0,30.59,East,90,0.0,2.0,92,0.00,,SKC,0.00,VWS V14.00,2013-03-02 10:27:00,
2013-03-02 03:32:00,21.8,19.8,30.59,East,90,0.0,2.0,92,0.00,,SKC,0.00,VWS V14.00,2013-03-02 10:32:00,
2013-03-02 03:37:00,21.6,19.6,30.59,East,90,0.0,0.0,92,0.00,,SKC,0.00,VWS V14.00,2013-03-02 10:37:00,
2013-03-02 03:43:00,21.5,19.5,30.59,East,90,0.0,2.0,92,0.00,,SKC,0.00,VWS V14.00,2013-03-02 10:43:00,
2013-03-02 03:48:00,21.5,19.8,30.59,East,90,2.0,2.0,93,0.00,,SKC,0.00,VWS V14.00,2013-03-02 10:48:00,
2013-03-02 03:53:00,21.7,20.0,30.59,East,90,0.0,2.0,93,0.00,,SKC,0.00,VWS V14.00,2013-03-02 10:53:00,
2013-03-02 03:59:00,21.5,19.5,30.59,East,90,0.0,2.0,92,0.00,,SKC,0.00,VWS V14.00,2013-03-02 10:59:00,
2013-03-02 04:04:00,21.0,18.8,30.59,East,90,0.0,0.0,91,0.00,,SKC,0.00,VWS V14.00,2013-03-02 11:04:00,
2013-03-02 04:09:00,20.7,18.5,30.59,East,90,0.0,0.0,91,0.00,,SKC,0.00,VWS V14.00,2013-03-02 11:09:00,
2013-03-02 04:14:00,20.7,18.8,30.59,East,90,0.0,2.0,92,0.00,,SKC,0.00,VWS V14.00,2013-03-02 11:14:00,
2013-03-02 04:19:00,20.7,18.8,30.59,East,90,0.0,2.0,92,0.00,,SKC,0.00,VWS V14.00,2013-03-02 11:19:00,
2013-03-02 04:25:00,20.8,18.9,30.59,East,90,0.0,2.0,92,0.00,,SKC,0.00,VWS V14.00,2013-03-02 11:25:00,
2013-03-02 04:30:00,20.7,18.8,30.59,East,90,0.0,2.0,92,0.00,,SKC,0.00,VWS V14.00,2013-03-02 11:30:00,
2013-03-02 04:35:00,20.8,19.1,30.59,East,90,0.0,2.0,93,0.00,,SKC,0.00,VWS V14.00,2013-03-02 11:35:00,
2013-03-02 04:40:00,21.0,19.3,30.59,East,90,0.0,2.0,93,0.00,,SKC,0.00,VWS V14.00,2013-03-02 11:40:00,
2013-03-02 04:46:00,21.0,19.0,30.59,East,90,0.0,2.0,92,0.00,,SKC,0.00,VWS V14.00,2013-03-02 11:46:00,
2013-03-02 04:51:00,21.0,19.0,30.59,East,90,0.0,2.0,92,0.00,,SKC,0.00,VWS V14.00,2013-03-02 11:51:00,
2013-03-02 04:56:00,21.1,19.1,30.59,East,90,0.0,2.0,92,0.00,,SKC,0.00,VWS V14.00,2013-03-02 11:56:00,
2013-03-02 05:01:00,20.7,18.5,30.59,East,90,1.0,2.0,91,0.00,,SKC,0.00,VWS V14.00,2013-03-02 12:01:00,
2013-03-02 05:07:00,20.5,18.3,30.59,East,90,0.0,0.0,91,0.00,,SKC,0.00,VWS V14.00,2013-03-02 12:07:00,
2013-03-02 05:12:00,20.5,18.5,30.59,East,90,0.0,0.0,92,0.00,,SKC,0.00,VWS V14.00,2013-03-02 12:12:00,
2013-03-02 05:17:00,20.3,18.4,30.59,East,90,0.0,0.0,92,0.00,,SKC,0.00,VWS V14.00,2013-03-02 12:17:00,
2013-03-02 05:22:00,20.2,18.2,30.59,East,90,0.0,0.0,92,0.00,,SKC,0.00,VWS V14.00,2013-03-02 12:22:00,
2013-03-02 05:27:00,19.9,17.7,30.59,East,90,0.0,0.0,91,0.00,,SKC,0.00,VWS V14.00,2013-03-02 12:27:00,
2013-03-02 05:33:00,19.7,17.5,30.60,East,90,0.0,0.0,91,0.00,,SKC,0.00,VWS V14.00,2013-03-02 12:33:00,
2013-03-02 05:38:00,19.6,17.4,30.60,East,90,0.0,0.0,91,0.00,,SKC,0.00,VWS V14.00,2013-03-02 12:38:00,
2013-03-02 05:43:00,19.1,16.7,30.60,East,90,0.0,2.0,90,0.00,,SKC,0.00,VWS V14.00,2013-03-02 12:43:00,
2013-03-02 05:48:00,18.9,16.7,30.60,East,90,0.0,2.0,91,0.00,,SKC,0.00,VWS V14.00,2013-03-02 12:48:00,
2013-03-02 05:53:00,19.0,17.1,30.61,East,90,1.0,2.0,92,0.00,,SKC,0.00,VWS V14.00,2013-03-02 12:53:00,
2013-03-02 05:59:00,19.1,17.2,30.61,East,90,1.0,2.0,92,0.00,,SKC,0.00,VWS V14.00,2013-03-02 12:59:00,
2013-03-02 06:04:00,19.1,17.2,30.61,East,90,0.0,0.0,92,0.00,,SKC,0.00,VWS V14.00,2013-03-02 13:04:00,
2013-03-02 06:09:00,19.2,17.5,30.61,East,90,2.0,2.0,93,0.00,,SKC,0.00,VWS V14.00,2013-03-02 13:09:00,
2013-03-02 06:14:00,18.8,16.6,30.62,ENE,65,0.0,3.0,91,0.00,,SKC,0.00,VWS V14.00,2013-03-02 13:14:00,
2013-03-02 06:19:00,18.7,16.8,30.62,ENE,63,0.0,3.0,92,0.00,,SKC,0.00,VWS V14.00,2013-03-02 13:19:00,
2013-03-02 06:25:00,19.0,17.3,30.62,ENE,63,0.0,3.0,93,0.00,,SKC,0.00,VWS V14.00,2013-03-02 13:25:00,
2013-03-02 06:30:00,19.1,17.4,30.62,ENE,63,0.0,3.0,93,0.00,,SKC,0.00,VWS V14.00,2013-03-02 13:30:00,
2013-03-02 06:35:00,19.0,17.1,30.62,ENE,63,0.0,0.0,92,0.00,,SKC,0.00,VWS V14.00,2013-03-02 13:35:00,
2013-03-02 06:40:00,18.9,17.0,30.62,ENE,63,0.0,0.0,92,0.00,,SKC,0.00,VWS V14.00,2013-03-02 13:40:00,
2013-03-02 06:46:00,18.8,16.9,30.62,ENE,63,0.0,2.0,92,0.00,,SKC,0.00,VWS V14.00,2013-03-02 13:46:00,
2013-03-02 06:51:00,18.7,16.8,30.62,ENE,63,0.0,2.0,92,0.00,,SKC,0.00,VWS V14.00,2013-03-02 13:51:00,
2013-03-02 06:56:00,18.7,16.8,30.62,NE,34,2.0,3.0,92,0.00,,SKC,0.00,VWS V14.00,2013-03-02 13:56:00,
2013-03-02 07:01:00,18.9,17.0,30.62,NNE,32,2.0,3.0,92,0.00,,SKC,0.00,VWS V14.00,2013-03-02 14:01:00,
2013-03-02 07:06:00,18.8,16.9,30.63,NNE,32,0.0,1.0,92,0.00,,SKC,0.00,VWS V14.00,2013-03-02 14:06:00,
2013-03-02 07:12:00,18.9,17.0,30.63,NNE,32,0.0,1.0,92,0.00,,SKC,0.00,VWS V14.00,2013-03-02 14:12:00,
2013-03-02 07:17:00,19.0,17.1,30.63,NNE,32,0.0,1.0,92,0.00,,SKC,0.00,VWS V14.00,2013-03-02 14:17:00,
2013-03-02 07:22:00,19.1,17.4,30.63,NNE,32,0.0,1.0,93,0.00,,SKC,0.00,VWS V14.00,2013-03-02 14:22:00,
2013-03-02 07:27:00,19.1,17.2,30.62,NNE,32,0.0,2.0,92,0.00,,SKC,0.00,VWS V14.00,2013-03-02 14:27:00,
2013-03-02 07:32:00,19.0,16.8,30.63,NNE,32,0.0,0.0,91,0.00,,SKC,0.00,VWS V14.00,2013-03-02 14:32:00,
2013-03-02 07:38:00,18.8,16.6,30.63,NNE,32,0.0,0.0,91,0.00,,SKC,0.00,VWS V14.00,2013-03-02 14:38:00,
2013-03-02 07:43:00,18.6,16.4,30.63,NNE,32,0.0,0.0,91,0.00,,SKC,0.00,VWS V14.00,2013-03-02 14:43:00,
2013-03-02 07:48:00,18.8,16.9,30.63,NNE,32,0.0,1.0,92,0.00,,SKC,0.00,VWS V14.00,2013-03-02 14:48:00,
2013-03-02 07:54:00,18.9,17.0,30.63,NNE,32,2.0,3.0,92,0.00,,SKC,0.00,VWS V14.00,2013-03-02 14:54:00,
2013-03-02 07:59:00,19.1,17.4,30.63,NNE,32,0.0,3.0,93,0.00,,SKC,0.00,VWS V14.00,2013-03-02 14:59:00,
2013-03-02 08:04:00,18.9,17.0,30.63,NNE,32,0.0,0.0,92,0.00,,SKC,0.00,VWS V14.00,2013-03-02 15:04:00,
2013-03-02 08:09:00,19.1,17.4,30.64,NNE,32,0.0,0.0,93,0.00,,SKC,0.00,VWS V14.00,2013-03-02 15:09:00,
2013-03-02 08:14:00,19.4,17.7,30.64,NNE,32,0.0,0.0,93,0.00,,SKC,0.00,VWS V14.00,2013-03-02 15:14:00,
2013-03-02 08:20:00,19.8,18.1,30.64,NNE,32,0.0,0.0,93,0.00,,SKC,0.00,VWS V14.00,2013-03-02 15:20:00,
2013-03-02 08:25:00,20.3,18.9,30.63,NNE,32,0.0,0.0,94,0.00,,SKC,0.00,VWS V14.00,2013-03-02 15:25:00,
2013-03-02 08:30:00,21.0,19.5,30.64,NNE,32,0.0,0.0,94,0.00,,SKC,0.00,VWS V14.00,2013-03-02 15:30:00,
2013-03-02 08:35:00,22.0,20.8,30.64,East,82,0.0,2.0,95,0.00,,SKC,0.00,VWS V14.00,2013-03-02 15:35:00,
2013-03-02 08:41:00,23.0,21.8,30.63,East,82,0.0,2.0,95,0.00,,SKC,0.00,VWS V14.00,2013-03-02 15:41:00,
2013-03-02 08:46:00,24.2,22.7,30.63,East,82,0.0,2.0,94,0.00,,SKC,0.00,VWS V14.00,2013-03-02 15:46:00,
2013-03-02 08:51:00,24.9,22.6,30.63,East,82,0.0,2.0,91,0.00,,SKC,0.00,VWS V14.00,2013-03-02 15:51:00,
2013-03-02 08:56:00,25.4,22.9,30.63,East,82,0.0,2.0,90,0.00,,SKC,0.00,VWS V14.00,2013-03-02 15:56:00,
2013-03-02 09:01:00,26.1,23.0,30.62,SSE,153,2.0,5.0,88,0.00,,SKC,0.00,VWS V14.00,2013-03-02 16:01:00,
2013-03-02 09:07:00,27.0,23.6,30.62,SSE,152,0.0,4.0,87,0.00,,SKC,0.00,VWS V14.00,2013-03-02 16:07:00,
2013-03-02 09:12:00,27.6,23.7,30.62,SSE,153,0.0,4.0,85,0.00,,SKC,0.00,VWS V14.00,2013-03-02 16:12:00,
2013-03-02 09:17:00,28.3,24.1,30.62,SSE,153,0.0,4.0,84,0.00,,SKC,0.00,VWS V14.00,2013-03-02 16:17:00,
2013-03-02 09:22:00,29.3,25.1,30.62,SSE,153,0.0,4.0,84,0.00,,SKC,0.00,VWS V14.00,2013-03-02 16:22:00,
2013-03-02 09:27:00,30.1,24.7,30.62,SSE,153,0.0,4.0,80,0.00,,SKC,0.00,VWS V14.00,2013-03-02 16:27:00,
2013-03-02 09:33:00,30.8,24.5,30.61,SSE,153,0.0,0.0,77,0.00,,SKC,0.00,VWS V14.00,2013-03-02 16:33:00,
2013-03-02 09:38:00,31.4,24.4,30.61,SSE,153,2.0,2.0,75,0.00,,SKC,0.00,VWS V14.00,2013-03-02 16:38:00,
2013-03-02 09:43:00,32.1,24.4,30.60,SSE,153,2.0,2.0,73,0.00,,SKC,0.00,VWS V14.00,2013-03-02 16:43:00,
2013-03-02 09:48:00,32.8,24.8,30.60,SSE,153,2.0,4.0,72,0.00,,SKC,0.00,VWS V14.00,2013-03-02 16:48:00,
2013-03-02 09:53:00,33.5,24.8,30.60,SSE,153,1.0,4.0,70,0.00,,SKC,0.00,VWS V14.00,2013-03-02 16:53:00,
2013-03-02 09:59:00,34.2,25.1,30.60,SSE,153,0.0,5.0,69,0.00,,SKC,0.00,VWS V14.00,2013-03-02 16:59:00,
2013-03-02 10:04:00,34.8,25.7,30.59,SSE,153,4.0,4.0,69,0.00,,SKC,0.00,VWS V14.00,2013-03-02 17:04:00,
2013-03-02 10:09:00,35.5,25.6,30.59,SSE,156,1.0,5.0,67,0.00,,SKC,0.00,VWS V14.00,2013-03-02 17:09:00,
2013-03-02 10:14:00,36.0,25.8,30.59,SSE,167,5.0,5.0,66,0.00,,SKC,0.00,VWS V14.00,2013-03-02 17:14:00,
2013-03-02 10:20:00,36.6,26.0,30.59,SSE,159,4.0,6.0,65,0.00,,SKC,0.00,VWS V14.00,2013-03-02 17:20:00,
2013-03-02 10:25:00,37.2,26.2,30.58,SSE,159,1.0,6.0,64,0.00,,SKC,0.00,VWS V14.00,2013-03-02 17:25:00,
2013-03-02 10:30:00,37.8,26.4,30.58,South,184,2.0,6.0,63,0.00,,SKC,0.00,VWS V14.00,2013-03-02 17:30:00,
2013-03-02 10:35:00,38.4,26.5,30.58,South,185,4.0,6.0,62,0.00,,SKC,0.00,VWS V14.00,2013-03-02 17:35:00,
2013-03-02 10:40:00,39.1,27.2,30.58,SSW,192,1.0,6.0,62,0.00,,SKC,0.00,VWS V14.00,2013-03-02 17:40:00,
2013-03-02 10:46:00,40.0,27.2,30.57,South,169,0.0,6.0,60,0.00,,SKC,0.00,VWS V14.00,2013-03-02 17:46:00,
2013-03-02 10:51:00,40.9,27.3,30.57,SSW,202,3.0,6.0,58,0.00,,SKC,0.00,VWS V14.00,2013-03-02 17:51:00,
2013-03-02 10:56:00,41.3,26.8,30.56,SSW,202,2.0,6.0,56,0.00,,SKC,0.00,VWS V14.00,2013-03-02 17:56:00,
2013-03-02 11:01:00,41.5,27.0,30.56,SSW,205,3.0,6.0,56,0.00,,SKC,0.00,VWS V14.00,2013-03-02 18:01:00,
2013-03-02 11:07:00,41.8,26.8,30.56,SSW,206,2.0,5.0,55,0.00,,SKC,0.00,VWS V14.00,2013-03-02 18:07:00,
2013-03-02 11:12:00,42.2,27.2,30.56,South,183,0.0,5.0,55,0.00,,SKC,0.00,VWS V14.00,2013-03-02 18:12:00,
2013-03-02 11:17:00,42.6,27.1,30.55,SSW,213,3.0,5.0,54,0.00,,SKC,0.00,VWS V14.00,2013-03-02 18:17:00,
2013-03-02 11:22:00,42.9,27.4,30.55,SSW,209,2.0,5.0,54,0.00,,SKC,0.00,VWS V14.00,2013-03-02 18:22:00,
2013-03-02 11:28:00,43.2,27.2,30.55,SSW,209,3.0,5.0,53,0.00,,SKC,0.00,VWS V14.00,2013-03-02 18:28:00,
2013-03-02 11:33:00,43.6,27.1,30.55,South,186,1.0,4.0,52,0.00,,SKC,0.00,VWS V14.00,2013-03-02 18:33:00,
2013-03-02 11:38:00,44.0,28.0,30.54,SW,216,2.0,5.0,53,0.00,,SKC,0.00,VWS V14.00,2013-03-02 18:38:00,
2013-03-02 11:43:00,44.2,27.2,30.54,SW,215,1.0,5.0,51,0.00,,SKC,0.00,VWS V14.00,2013-03-02 18:43:00,
2013-03-02 11:48:00,44.6,27.1,30.53,SSW,194,1.0,5.0,50,0.00,,SKC,0.00,VWS V14.00,2013-03-02 18:48:00,
2013-03-02 11:54:00,45.2,28.2,30.53,SW,224,1.0,5.0,51,0.00,,SKC,0.00,VWS V14.00,2013-03-02 18:54:00,
2013-03-02 11:59:00,45.9,27.3,30.53,SW,224,5.0,5.0,48,0.00,,SKC,0.00,VWS V14.00,2013-03-02 18:59:00,
2013-03-02 12:04:00,46.3,27.2,30.53,South,190,4.0,5.0,47,0.00,,SKC,0.00,VWS V14.00,2013-03-02 19:04:00,
2013-03-02 12:09:00,46.4,26.8,30.52,SW,215,1.0,6.0,46,0.00,,SKC,0.00,VWS V14.00,2013-03-02 19:09:00,
2013-03-02 12:15:00,46.5,25.8,30.52,SW,217,3.0,6.0,44,0.00,,SKC,0.00,VWS V14.00,2013-03-02 19:15:00,
2013-03-02 12:20:00,46.8,26.6,30.52,SSW,198,2.0,6.0,45,0.00,,SKC,0.00,VWS V14.00,2013-03-02 19:20:00,
2013-03-02 12:25:00,47.2,25.9,30.51,SSW,192,3.0,6.0,43,0.00,,SKC,0.00,VWS V14.00,2013-03-02 19:25:00,
2013-03-02 12:30:00,47.4,26.0,30.50,SSW,194,2.0,6.0,43,0.00,,SKC,0.00,VWS V14.00,2013-03-02 19:30:00,
2013-03-02 12:35:00,47.6,26.2,30.50,SSW,213,0.0,5.0,43,0.00,,SKC,0.00,VWS V14.00,2013-03-02 19:35:00,
2013-03-02 12:41:00,47.8,26.4,30.49,South,190,4.0,7.0,43,0.00,,SKC,0.00,VWS V14.00,2013-03-02 19:41:00,
2013-03-02 12:46:00,48.3,26.9,30.49,SSW,206,2.0,7.0,43,0.00,,SKC,0.00,VWS V14.00,2013-03-02 19:46:00,
2013-03-02 12:51:00,48.5,26.5,30.48,SSW,192,1.0,7.0,42,0.00,,SKC,0.00,VWS V14.00,2013-03-02 19:51:00,
2013-03-02 12:56:00,48.9,26.2,30.48,SSW,204,4.0,7.0,41,0.00,,SKC,0.00,VWS V14.00,2013-03-02 19:56:00,
2013-03-02 13:01:00,48.8,26.2,30.47,South,174,2.0,7.0,41,0.00,,SKC,0.00,VWS V14.00,2013-03-02 20:01:00,
2013-03-02 13:07:00,49.0,26.3,30.47,South,191,2.0,5.0,41,0.00,,SKC,0.00,VWS V14.00,2013-03-02 20:07:00,
2013-03-02 13:12:00,49.3,27.2,30.47,South,184,3.0,6.0,42,0.00,,SKC,0.00,VWS V14.00,2013-03-02 20:12:00,
2013-03-02 13:17:00,49.7,27.0,30.46,South,184,3.0,6.0,41,0.00,,SKC,0.00,VWS V14.00,2013-03-02 20:17:00,
2013-03-02 13:22:00,49.8,25.9,30.45,South,184,0.0,6.0,39,0.00,,SKC,0.00,VWS V14.00,2013-03-02 20:22:00,
2013-03-02 13:28:00,50.0,26.0,30.44,SW,219,2.0,6.0,39,0.00,,SKC,0.00,VWS V14.00,2013-03-02 20:28:00,
2013-03-02 13:33:00,50.2,26.2,30.44,SSW,211,2.0,5.0,39,0.00,,SKC,0.00,VWS V14.00,2013-03-02 20:33:00,
2013-03-02 13:38:00,50.2,25.6,30.44,SSW,198,3.0,5.0,38,0.00,,SKC,0.00,VWS V14.00,2013-03-02 20:38:00,
2013-03-02 13:43:00,50.1,26.1,30.44,SSW,211,2.0,5.0,39,0.00,,SKC,0.00,VWS V14.00,2013-03-02 20:43:00,
2013-03-02 13:48:00,50.1,25.5,30.44,SW,217,2.0,5.0,38,0.00,,SKC,0.00,VWS V14.00,2013-03-02 20:48:00,
2013-03-02 13:54:00,50.2,25.6,30.44,South,186,2.0,6.0,38,0.00,,SKC,0.00,VWS V14.00,2013-03-02 20:54:00,
2013-03-02 13:59:00,50.4,27.0,30.43,SSW,205,3.0,6.0,40,0.00,,SKC,0.00,VWS V14.00,2013-03-02 20:59:00,
2013-03-02 14:04:00,50.5,25.9,30.42,South,180,0.0,5.0,38,0.00,,SKC,0.00,VWS V14.00,2013-03-02 21:04:00,
2013-03-02 14:09:00,50.7,26.7,30.43,SW,215,2.0,5.0,39,0.00,,SKC,0.00,VWS V14.00,2013-03-02 21:09:00,
2013-03-02 14:15:00,50.8,26.1,30.42,SSW,198,1.0,5.0,38,0.00,,SKC,0.00,VWS V14.00,2013-03-02 21:15:00,
2013-03-02 14:20:00,50.9,26.2,30.42,South,183,2.0,5.0,38,0.00,,SKC,0.00,VWS V14.00,2013-03-02 21:20:00,
2013-03-02 14:25:00,51.1,25.8,30.42,SSW,200,1.0,5.0,37,0.00,,SKC,0.00,VWS V14.00,2013-03-02 21:25:00,
2013-03-02 14:30:00,51.4,26.0,30.41,South,184,0.0,5.0,37,0.00,,SKC,0.00,VWS V14.00,2013-03-02 21:30:00,
2013-03-02 14:36:00,51.7,25.6,30.41,South,184,3.0,4.0,36,0.00,,SKC,0.00,VWS V14.00,2013-03-02 21:36:00,
2013-03-02 14:41:00,51.8,26.4,30.40,South,188,0.0,8.0,37,0.00,,SKC,0.00,VWS V14.00,2013-03-02 21:41:00,
2013-03-02 14:46:00,52.0,26.5,30.40,SSW,193,4.0,8.0,37,0.00,,SKC,0.00,VWS V14.00,2013-03-02 21:46:00,
2013-03-02 14:51:00,52.1,26.6,30.40,SSW,201,0.0,8.0,37,0.00,,SKC,0.00,VWS V14.00,2013-03-02 21:51:00,
2013-03-02 14:56:00,52.5,27.0,30.40,South,171,2.0,8.0,37,0.00,,SKC,0.00,VWS V14.00,2013-03-02 21:56:00,
2013-03-02 15:02:00,52.6,26.4,30.40,SSW,200,0.0,8.0,36,0.00,,SKC,0.00,VWS V14.00,2013-03-02 22:02:00,
2013-03-02 15:07:00,52.4,26.2,30.39,SSW,203,0.0,5.0,36,0.00,,SKC,0.00,VWS V14.00,2013-03-02 22:07:00,
2013-03-02 15:12:00,52.5,26.3,30.38,SSE,167,2.0,5.0,36,0.00,,SKC,0.00,VWS V14.00,2013-03-02 22:12:00,
2013-03-02 15:17:00,52.4,26.2,30.38,South,184,2.0,5.0,36,0.00,,SKC,0.00,VWS V14.00,2013-03-02 22:17:00,
2013-03-02 15:23:00,52.1,26.6,30.38,SSW,198,0.0,5.0,37,0.00,,SKC,0.00,VWS V14.00,2013-03-02 22:23:00,
2013-03-02 15:28:00,52.7,26.5,30.38,SSW,198,2.0,5.0,36,0.00,,SKC,0.00,VWS V14.00,2013-03-02 22:28:00,
2013-03-02 15:33:00,52.6,26.4,30.38,SSW,198,0.0,1.0,36,0.00,,SKC,0.00,VWS V14.00,2013-03-02 22:33:00,
2013-03-02 15:38:00,52.4,26.2,30.38,SSW,200,2.0,4.0,36,0.00,,SKC,0.00,VWS V14.00,2013-03-02 22:38:00,
2013-03-02 15:44:00,52.4,25.6,30.38,SSW,200,0.0,5.0,35,0.00,,SKC,0.00,VWS V14.00,2013-03-02 22:44:00,
2013-03-02 15:49:00,52.7,27.2,30.37,SSW,200,0.0,5.0,37,0.00,,SKC,0.00,VWS V14.00,2013-03-02 22:49:00,
2013-03-02 15:54:00,53.1,26.2,30.36,SSW,200,0.0,5.0,35,0.00,,SKC,0.00,VWS V14.00,2013-03-02 22:54:00,
2013-03-02 15:59:00,53.4,26.5,30.37,SSW,200,0.0,5.0,35,0.00,,SKC,0.00,VWS V14.00,2013-03-02 22:59:00,
2013-03-02 16:04:00,53.7,26.0,30.37,SSW,200,0.0,1.0,34,0.00,,SKC,0.00,VWS V14.00,2013-03-02 23:04:00,
2013-03-02 16:10:00,53.9,26.9,30.36,SSW,200,0.0,1.0,35,0.00,,SKC,0.00,VWS V14.00,2013-03-02 23:10:00,
2013-03-02 16:15:00,53.9,26.2,30.36,SSW,200,0.0,3.0,34,0.00,,SKC,0.00,VWS V14.00,2013-03-02 23:15:00,
2013-03-02 16:20:00,53.5,25.8,30.36,SSW,200,0.0,3.0,34,0.00,,SKC,0.00,VWS V14.00,2013-03-02 23:20:00,
2013-03-02 16:25:00,53.4,25.8,30.35,SSW,200,0.0,3.0,34,0.00,,SKC,0.00,VWS V14.00,2013-03-02 23:25:00,
2013-03-02 16:30:00,53.0,25.4,30.35,SSW,200,0.0,3.0,34,0.00,,SKC,0.00,VWS V14.00,2013-03-02 23:30:00,
2013-03-02 16:36:00,53.1,26.9,30.34,SSW,200,0.0,2.0,36,0.00,,SKC,0.00,VWS V14.00,2013-03-02 23:36:00,
2013-03-02 16:41:00,53.1,27.5,30.34,SSW,200,0.0,2.0,37,0.00,,SKC,0.00,VWS V14.00,2013-03-02 23:41:00,
2013-03-02 16:46:00,53.4,27.8,30.34,SSW,200,0.0,2.0,37,0.00,,SKC,0.00,VWS V14.00,2013-03-02 23:46:00,
2013-03-02 16:51:00,53.1,28.2,30.33,SSW,200,0.0,2.0,38,0.00,,SKC,0.00,VWS V14.00,2013-03-02 23:51:00,
2013-03-02 16:57:00,51.7,28.2,30.33,SSW,200,1.0,2.0,40,0.00,,SKC,0.00,VWS V14.00,2013-03-02 23:57:00,
2013-03-02 17:02:00,50.0,27.8,30.33,SSW,200,0.0,2.0,42,0.00,,SKC,0.00,VWS V14.00,2013-03-03 00:02:00,
2013-03-02 17:07:00,48.7,28.3,30.33,SSW,200,0.0,1.0,45,0.00,,SKC,0.00,VWS V14.00,2013-03-03 00:07:00,
2013-03-02 17:12:00,47.4,28.2,30.33,SSW,200,0.0,2.0,47,0.00,,SKC,0.00,VWS V14.00,2013-03-03 00:12:00,
2013-03-02 17:18:00,46.0,26.9,30.32,SSW,200,2.0,3.0,47,0.00,,SKC,0.00,VWS V14.00,2013-03-03 00:18:00,
2013-03-02 17:23:00,45.1,27.1,30.33,SSW,200,0.0,3.0,49,0.00,,SKC,0.00,VWS V14.00,2013-03-03 00:23:00,
2013-03-02 17:28:00,44.4,27.9,30.33,SSW,200,1.0,3.0,52,0.00,,SKC,0.00,VWS V14.00,2013-03-03 00:28:00,
2013-03-02 17:33:00,43.6,28.1,30.33,SSW,200,0.0,1.0,54,0.00,,SKC,0.00,VWS V14.00,2013-03-03 00:33:00,
2013-03-02 17:38:00,43.1,28.0,30.32,East,87,3.0,5.0,55,0.00,,SKC,0.00,VWS V14.00,2013-03-03 00:38:00,
2013-03-02 17:44:00,41.7,27.6,30.32,East,81,0.0,5.0,57,0.00,,SKC,0.00,VWS V14.00,2013-03-03 00:44:00,
2013-03-02 17:49:00,41.0,27.8,30.32,East,81,0.0,5.0,59,0.00,,SKC,0.00,VWS V14.00,2013-03-03 00:49:00,
2013-03-02 17:54:00,40.4,28.8,30.32,East,81,0.0,5.0,63,0.00,,SKC,0.00,VWS V14.00,2013-03-03 00:54:00,
2013-03-02 17:59:00,39.7,28.1,30.32,East,81,0.0,5.0,63,0.00,,SKC,0.00,VWS V14.00,2013-03-03 00:59:00,
2013-03-02 18:05:00,39.0,28.2,30.32,East,81,2.0,2.0,65,0.00,,SKC,0.00,VWS V14.00,2013-03-03 01:05:00,
2013-03-02 18:10:00,38.2,28.2,30.33,East,81,0.0,3.0,67,0.00,,SKC,0.00,VWS V14.00,2013-03-03 01:10:00,
2013-03-02 18:15:00,37.5,28.3,30.33,East,81,0.0,3.0,69,0.00,,SKC,0.00,VWS V14.00,2013-03-03 01:15:00,
2013-03-02 18:20:00,37.1,27.9,30.33,East,81,0.0,3.0,69,0.00,,SKC,0.00,VWS V14.00,2013-03-03 01:20:00,
2013-03-02 18:26:00,36.7,28.2,30.32,East,81,2.0,3.0,71,0.00,,SKC,0.00,VWS V14.00,2013-03-03 01:26:00,
2013-03-02 18:31:00,36.3,28.1,30.32,East,81,0.0,3.0,72,0.00,,SKC,0.00,VWS V14.00,2013-03-03 01:31:00,
2013-03-02 18:36:00,36.0,27.9,30.33,East,81,1.0,2.0,72,0.00,,SKC,0.00,VWS V14.00,2013-03-03 01:36:00,
2013-03-02 18:41:00,35.7,27.6,30.33,East,81,0.0,2.0,72,0.00,,SKC,0.00,VWS V14.00,2013-03-03 01:41:00,
2013-03-02 18:46:00,35.1,27.7,30.33,East,81,0.0,2.0,74,0.00,,SKC,0.00,VWS V14.00,2013-03-03 01:46:00,
2013-03-02 18:52:00,34.9,28.1,30.33,East,81,0.0,2.0,76,0.00,,SKC,0.00,VWS V14.00,2013-03-03 01:52:00,
2013-03-02 18:57:00,34.6,27.2,30.33,East,81,0.0,2.0,74,0.00,,SKC,0.00,VWS V14.00,2013-03-03 01:57:00,
2013-03-02 19:02:00,34.5,27.7,30.33,East,81,1.0,3.0,76,0.00,,SKC,0.00,VWS V14.00,2013-03-03 02:02:00,
2013-03-02 19:07:00,34.4,27.3,30.33,East,81,0.0,2.0,75,0.00,,SKC,0.00,VWS V14.00,2013-03-03 02:07:00,
2013-03-02 19:13:00,34.2,26.8,30.33,East,81,0.0,2.0,74,0.00,,SKC,0.00,VWS V14.00,2013-03-03 02:13:00,
2013-03-02 19:18:00,34.1,27.7,30.33,East,81,0.0,2.0,77,0.00,,SKC,0.00,VWS V14.00,2013-03-03 02:18:00,
2013-03-02 19:23:00,34.0,27.6,30.33,East,81,0.0,2.0,77,0.00,,SKC,0.00,VWS V14.00,2013-03-03 02:23:00,
2013-03-02 19:28:00,33.6,26.9,30.33,East,81,0.0,2.0,76,0.00,,SKC,0.00,VWS V14.00,2013-03-03 02:28:00,
2013-03-02 19:33:00,33.6,27.8,30.32,East,81,0.0,1.0,79,0.00,,SKC,0.00,VWS V14.00,2013-03-03 02:33:00,
2013-03-02 19:39:00,33.5,27.4,30.32,East,81,0.0,1.0,78,0.00,,SKC,0.00,VWS V14.00,2013-03-03 02:39:00,
2013-03-02 19:44:00,33.1,27.3,30.32,East,81,0.0,2.0,79,0.00,,SKC,0.00,VWS V14.00,2013-03-03 02:44:00,
2013-03-02 19:49:00,32.6,26.2,30.32,East,81,0.0,2.0,77,0.00,,SKC,0.00,VWS V14.00,2013-03-03 02:49:00,
2013-03-02 19:54:00,32.4,26.9,30.32,East,81,0.0,2.0,80,0.00,,SKC,0.00,VWS V14.00,2013-03-03 02:54:00,
2013-03-02 19:59:00,32.4,26.6,30.32,East,81,0.0,3.0,79,0.00,,SKC,0.00,VWS V14.00,2013-03-03 02:59:00,
2013-03-02 20:05:00,32.5,26.4,30.31,East,81,0.0,0.0,78,0.00,,SKC,0.00,VWS V14.00,2013-03-03 03:05:00,
2013-03-02 20:10:00,32.4,26.9,30.31,East,81,0.0,2.0,80,0.00,,SKC,0.00,VWS V14.00,2013-03-03 03:10:00,
2013-03-02 20:15:00,32.2,26.4,30.32,East,81,1.0,2.0,79,0.00,,SKC,0.00,VWS V14.00,2013-03-03 03:15:00,
2013-03-02 20:20:00,32.0,26.2,30.32,East,81,0.0,2.0,79,0.00,,SKC,0.00,VWS V14.00,2013-03-03 03:20:00,
2013-03-02 20:25:00,31.8,26.0,30.32,East,81,0.0,2.0,79,0.00,,SKC,0.00,VWS V14.00,2013-03-03 03:25:00,
2013-03-02 20:31:00,31.7,26.5,30.32,East,81,0.0,2.0,81,0.00,,SKC,0.00,VWS V14.00,2013-03-03 03:31:00,
2013-03-02 20:36:00,31.6,26.5,30.32,East,81,0.0,2.0,81,0.00,,SKC,0.00,VWS V14.00,2013-03-03 03:36:00,
2013-03-02 20:41:00,31.4,26.0,30.31,East,81,0.0,2.0,80,0.00,,SKC,0.00,VWS V14.00,2013-03-03 03:41:00,
2013-03-02 20:46:00,31.3,25.9,30.31,East,81,0.0,2.0,80,0.00,,SKC,0.00,VWS V14.00,2013-03-03 03:46:00,
2013-03-02 20:52:00,31.2,26.1,30.31,East,81,0.0,3.0,81,0.00,,SKC,0.00,VWS V14.00,2013-03-03 03:52:00,
2013-03-02 20:57:00,31.1,25.7,30.31,East,81,2.0,3.0,80,0.00,,SKC,0.00,VWS V14.00,2013-03-03 03:57:00,
2013-03-02 21:02:00,31.0,25.9,30.31,ENE,76,0.0,3.0,81,0.00,,SKC,0.00,VWS V14.00,2013-03-03 04:02:00,
2013-03-02 21:07:00,31.0,26.2,30.31,ENE,76,0.0,2.0,82,0.00,,SKC,0.00,VWS V14.00,2013-03-03 04:07:00,
2013-03-02 21:13:00,30.9,25.8,30.31,ENE,76,1.0,2.0,81,0.00,,SKC,0.00,VWS V14.00,2013-03-03 04:13:00,
2013-03-02 21:18:00,30.8,26.0,30.31,ENE,76,0.0,2.0,82,0.00,,SKC,0.00,VWS V14.00,2013-03-03 04:18:00,
2013-03-02 21:23:00,30.7,25.9,30.30,ENE,76,0.0,2.0,82,0.00,,SKC,0.00,VWS V14.00,2013-03-03 04:23:00,
2013-03-02 21:28:00,30.6,25.8,30.30,ENE,76,0.0,2.0,82,0.00,,SKC,0.00,VWS V14.00,2013-03-03 04:28:00,
2013-03-02 21:33:00,30.5,25.7,30.30,ENE,76,0.0,0.0,82,0.00,,SKC,0.00,VWS V14.00,2013-03-03 04:33:00,
2013-03-02 21:39:00,30.5,25.7,30.30,ENE,76,0.0,0.0,82,0.00,,SKC,0.00,VWS V14.00,2013-03-03 04:39:00,
2013-03-02 21:44:00,30.5,25.7,30.30,ENE,76,0.0,1.0,82,0.00,,SKC,0.00,VWS V14.00,2013-03-03 04:44:00,
2013-03-02 21:49:00,30.7,25.6,30.29,ENE,76,0.0,2.0,81,0.00,,SKC,0.00,VWS V14.00,2013-03-03 04:49:00,
2013-03-02 21:54:00,30.7,25.6,30.29,ENE,76,0.0,2.0,81,0.00,,SKC,0.00,VWS V14.00,2013-03-03 04:54:00,
2013-03-02 21:59:00,30.3,25.2,30.29,ENE,76,1.0,2.0,81,0.00,,SKC,0.00,VWS V14.00,2013-03-03 04:59:00,
2013-03-02 22:00:00,30.2,25.1,30.29,ENE,76,0.0,2.0,81,0.00,,SKC,0.00,VWS V14.00,2013-03-03 05:00:00,
2013-03-02 22:01:00,30.2,25.1,30.29,ENE,76,1.0,2.0,81,0.00,,SKC,0.00,VWS V14.00,2013-03-03 05:01:00,
2013-03-02 22:02:00,30.2,25.1,30.29,ENE,76,1.0,2.0,81,0.00,,SKC,0.00,VWS V14.00,2013-03-03 05:02:00,
2013-03-02 22:07:00,30.1,25.3,30.28,ENE,76,0.0,1.0,82,0.00,,SKC,0.00,VWS V14.00,2013-03-03 05:07:00,
2013-03-02 22:13:00,29.9,24.8,30.28,ENE,76,0.0,1.0,81,0.00,,SKC,0.00,VWS V14.00,2013-03-03 05:13:00,
2013-03-02 22:18:00,29.8,25.3,30.27,ENE,76,0.0,1.0,83,0.00,,SKC,0.00,VWS V14.00,2013-03-03 05:18:00,
2013-03-02 22:23:00,29.6,25.1,30.27,ENE,76,1.0,2.0,83,0.00,,SKC,0.00,VWS V14.00,2013-03-03 05:23:00,
2013-03-02 22:28:00,29.4,24.6,30.27,ENE,76,0.0,2.0,82,0.00,,SKC,0.00,VWS V14.00,2013-03-03 05:28:00,
2013-03-02 22:34:00,29.2,24.7,30.27,ENE,76,0.0,2.0,83,0.00,,SKC,0.00,VWS V14.00,2013-03-03 05:34:00,
2013-03-02 22:39:00,29.3,25.1,30.26,ENE,76,1.0,2.0,84,0.00,,SKC,0.00,VWS V14.00,2013-03-03 05:39:00,
2013-03-02 22:44:00,29.3,24.8,30.26,ENE,76,0.0,3.0,83,0.00,,SKC,0.00,VWS V14.00,2013-03-03 05:44:00,
2013-03-02 22:49:00,29.4,24.9,30.26,ENE,76,0.0,3.0,83,0.00,,SKC,0.00,VWS V14.00,2013-03-03 05:49:00,
2013-03-02 22:54:00,29.4,24.9,30.26,ENE,76,0.0,3.0,83,0.00,,SKC,0.00,VWS V14.00,2013-03-03 05:54:00,
2013-03-02 23:00:00,29.3,24.8,30.26,ENE,76,0.0,3.0,83,0.00,,SKC,0.00,VWS V14.00,2013-03-03 06:00:00,
2013-03-02 23:05:00,29.4,24.9,30.25,ENE,76,1.0,2.0,83,0.00,,SKC,0.00,VWS V14.00,2013-03-03 06:05:00,
2013-03-02 23:10:00,30.0,25.5,30.25,ENE,76,0.0,2.0,83,0.00,,SKC,0.00,VWS V14.00,2013-03-03 06:10:00,
2013-03-02 23:15:00,30.3,25.8,30.25,ENE,63,1.0,3.0,83,0.00,,SKC,0.00,VWS V14.00,2013-03-03 06:15:00,
2013-03-02 23:21:00,29.9,24.8,30.25,ENE,63,1.0,3.0,81,0.00,,SKC,0.00,VWS V14.00,2013-03-03 06:21:00,
2013-03-02 23:26:00,29.8,25.0,30.25,NE,34,3.0,4.0,82,0.00,,SKC,0.00,VWS V14.00,2013-03-03 06:26:00,
2013-03-02 23:31:00,29.8,25.0,30.25,NNE,30,0.0,4.0,82,0.00,,SKC,0.00,VWS V14.00,2013-03-03 06:31:00,
2013-03-02 23:36:00,29.9,25.1,30.25,NNE,30,0.0,1.0,82,0.00,,SKC,0.00,VWS V14.00,2013-03-03 06:36:00,
2013-03-02 23:41:00,30.0,25.2,30.25,NNE,30,0.0,2.0,82,0.00,,SKC,0.00,VWS V14.00,2013-03-03 06:41:00,
2013-03-02 23:47:00,30.0,25.2,30.25,NNE,30,0.0,2.0,82,0.00,,SKC,0.00,VWS V14.00,2013-03-03 06:47:00,
2013-03-02 23:52:00,30.0,25.5,30.24,NNE,30,0.0,2.0,83,0.00,,SKC,0.00,VWS V14.00,2013-03-03 06:52:00,
2013-03-02 23:57:00,30.1,25.9,30.24,NNE,30,1.0,2.0,84,0.00,,SKC,0.00,VWS V14.00,2013-03-03 06:57:00,